Weather in Tsumeb

Namibia     19°14′51″S   17°42′45″E
temp.,
°C
wind,
m/s
gust,
m/s
humid.,
%
clouds,
%
prec.,
mm/h
press.,
hPa
HPBL,
m
13 april, tue
tue1323:00+18se46420 0.0 102078
02:00+17se510460 0.0 1019163
05:00+15se46480 0.0 101983
08:00+17se411500 0.0 1021268
11:00+24ese810330 0.0 10201164
14:00+27ene78293 0.0 10162585
17:00+27e68305 0.0 10152792
20:00+20se454313 0.0 101856
14 april, wed
wed1423:00+19se511434 0.0 1019162
02:00+18se5124316 0.0 1019203
05:00+17se613402 0.0 1019235
08:00+17se512430 0.0 1020256
11:00+24ese810320 0.0 10191001
14:00+27e68273 0.0 10152646
17:00+27e68275 0.0 10132813
20:00+20se44374 0.0 101644
15 april, thu
thu1523:00+19se59353 0.0 1018132
02:00+17se59367 0.0 1017137
05:00+17se45385 0.0 101757
08:00+18se36415 0.0 1018129
11:00+24e79321 0.0 1018943
14:00+27ene67265 0.0 10132892
17:00+27ene56266 0.0 10122923
20:00
16 april, fri
fri1623:00+20ese114168 0.0 101511
02:00+16ese334770 0.0 101622
05:00+17sse225036 0.0 101511
08:00+20e33484 0.0 101736
11:00+26ene46330 0.0 10161655
14:00+27ene552783 0.0 10133004
17:00+26ene343320 0.0 10121377
20:00+22ne113846 0.0 101411
17 april, sat
sat1723:00+19ne334924 0.0 101615
02:00+17se22569 0.0 101511
05:00+17se335784 0.0 101522
08:00+19ese345347 0.0 101680
11:00+25e673872 0.0 10171074
14:00+28ne6729100 0.0 10133257
17:00+24nne343986 0.0 101388
20:00+20e22479 0.0 101512